Location: Newark
(48.2308°N, 120.8549°W)
Time: 05:41:50
(UTC+00:00)

Tiros 1 - All Passes

Search period start: 06 June 2020 00:00
Search period end: 16 June 2020 00:00
Orbit: 630 x 664 km, 48.4° (Epoch: 05 June)

Date Brightness Start Highest point End Pass type
(mag) Time Alt. Az. Time Alt. Az. Time Alt. Az.
06 Jun - 00:48:46 10° W 00:52:03 19° SW 00:55:19 10° S daylight
06 Jun - 16:46:45 10° SSE 16:48:47 13° SE 16:50:49 10° ESE daylight
06 Jun - 18:25:36 10° SW 18:30:08 44° SSE 18:34:39 10° E daylight
06 Jun - 20:07:22 10° W 20:12:10 88° S 20:16:55 10° E daylight
06 Jun - 21:49:40 10° W 21:54:26 83° S 21:59:08 10° ESE daylight
06 Jun - 23:32:02 10° W 23:36:21 36° SSW 23:40:36 10° SE daylight
07 Jun - 17:10:30 10° SSW 17:14:20 24° SE 17:18:09 10° E daylight
07 Jun - 18:51:18 10° WSW 18:56:03 67° SSE 19:00:45 10° E daylight
07 Jun - 20:33:28 10° W 20:38:15 87° N 20:42:59 10° E daylight
07 Jun - 22:15:45 10° W 22:20:25 61° SSW 22:25:03 10° ESE daylight
07 Jun - 23:58:34 10° W 00:02:01 20° SW 00:05:26 10° S daylight
08 Jun - 15:57:07 10° SSE 15:58:45 12° SE 16:00:24 10° ESE daylight
08 Jun - 17:35:34 10° SW 17:40:04 41° SSE 17:44:33 10° E daylight
08 Jun - 19:17:16 10° WSW 19:22:04 86° S 19:26:49 10° E daylight
08 Jun - 20:59:33 10° W 21:04:20 84° S 21:09:03 10° ESE daylight
08 Jun - 22:41:54 10° W 22:46:17 38° SSW 22:50:36 10° SE daylight
09 Jun - 16:20:33 10° SSW 16:24:17 23° SE 16:28:01 10° E daylight
09 Jun - 18:01:12 10° WSW 18:05:57 65° SSE 18:10:40 10° E daylight
09 Jun - 19:43:21 10° W 19:48:09 87° N 19:52:54 10° E daylight
09 Jun - 21:25:38 10° W 21:30:21 63° SSW 21:34:59 10° ESE daylight
09 Jun - 23:08:22 10° W 23:11:58 22° SW 23:15:32 10° S daylight
10 Jun - 15:07:38 10° SE 15:08:43 11° SE 15:09:48 10° ESE daylight
10 Jun - 16:45:31 10° SW 16:49:59 39° SSE 16:54:26 10° E daylight
10 Jun - 18:27:09 10° WSW 18:31:58 85° S 18:36:44 10° E daylight
10 Jun - 20:09:27 10° W 20:14:14 86° S 20:18:58 10° ESE daylight
10 Jun - 21:51:46 10° W 21:56:13 40° SSW 22:00:36 10° SE daylight
10 Jun - 23:36:17 10° WSW 23:37:28 11° SW 23:38:39 10° SSW daylight
11 Jun - 15:30:36 10° S 15:34:13 21° SE 15:37:50 10° E daylight
11 Jun - 17:11:06 10° WSW 17:15:51 62° SSE 17:20:34 10° E daylight
11 Jun - 18:53:14 10° W 18:58:03 87° N 19:02:48 10° E daylight
11 Jun - 20:35:31 10° W 20:40:15 66° SSW 20:44:56 10° ESE daylight
11 Jun - 22:18:10 10° W 22:21:55 23° SW 22:25:37 10° SSE daylight
12 Jun - 15:55:29 10° SW 15:59:54 37° SSE 16:04:19 10° E daylight
12 Jun - 17:37:02 10° WSW 17:41:51 83° S 17:46:38 10° E daylight
12 Jun - 19:19:20 10° W 19:24:08 87° SSW 19:28:53 10° E daylight
12 Jun - 21:01:39 10° W 21:06:09 43° SSW 21:10:35 10° SE daylight
12 Jun - 22:45:41 10° WSW 22:47:26 12° SW 22:49:11 10° SSW daylight
13 Jun - 14:40:40 10° S 14:44:09 20° SE 14:47:39 10° E daylight
13 Jun - 16:21:02 10° WSW 16:25:46 60° SSE 16:30:29 10° E daylight
13 Jun - 18:03:07 10° W 18:07:56 87° N 18:12:43 10° E daylight
13 Jun - 19:45:24 10° W 19:50:10 69° SSW 19:54:52 10° ESE daylight
13 Jun - 21:28:00 10° W 21:31:52 25° SW 21:35:41 10° SSE daylight
14 Jun - 15:05:27 10° SSW 15:09:50 35° SSE 15:14:12 10° E daylight
14 Jun - 16:46:55 10° WSW 16:51:45 81° SSE 16:56:33 10° E daylight
14 Jun - 18:29:12 10° W 18:34:01 89° SSW 18:38:48 10° E daylight
14 Jun - 20:11:31 10° W 20:16:04 45° SSW 20:20:34 10° SE daylight
14 Jun - 21:55:15 10° WSW 21:57:24 13° SW 21:59:34 10° SSW daylight
15 Jun - 13:50:46 10° S 13:54:07 19° SE 13:57:27 10° E daylight
15 Jun - 15:30:57 10° SW 15:35:40 57° SSE 15:40:23 10° E daylight
15 Jun - 17:12:59 10° W 17:17:49 87° N 17:22:38 10° E daylight
15 Jun - 18:55:17 10° W 19:00:04 71° SSW 19:04:48 10° ESE daylight
15 Jun - 20:37:50 10° W 20:41:49 27° SW 20:45:45 10° SSE daylight
